Weather reports worldwide

Advertisment
Santiago Q. Normal, Chile (85577): temperature & dewpoint: 17.01.2020 22:00:00 - 23.01.2020 22:00:00 (CLT)Santiago Q. Normal, Chile (85577): wind speed: 17.01.2020 22:00:00 - 23.01.2020 22:00:00 (CLT)Santiago Q. Normal, Chile (85577): wind direction: 17.01.2020 22:00:00 - 23.01.2020 22:00:00 (CLT)Santiago Q. Normal, Chile (85577): reduced air pressure: 17.01.2020 22:00:00 - 23.01.2020 22:00:00 (CLT)Santiago Q. Normal, Chile (85577): visibility: 17.01.2020 22:00:00 - 23.01.2020 22:00:00 (CLT)
Date & Time tt [°C] td [°C] ff [km/h] ff [kn] dd ppp [hPa] vv [km]
23.01.2020 22:00:00 - - - - - - -
23.01.2020 21:00:00 24,0 13,4 11 6 S 1014,1 10
23.01.2020 20:00:00 - - - - - - -
23.01.2020 19:00:00 - - - - - - -
23.01.2020 18:00:00 29,6 13,6 11 6 SW 1012,5 10
23.01.2020 17:00:00 - - - - - - -
23.01.2020 16:00:00 - - - - - - -
23.01.2020 15:00:00 28,8 13,9 11 6 SW 1014,1 10
23.01.2020 14:00:00 - - - - - - -
23.01.2020 13:00:00 - - - - - - -
23.01.2020 12:00:00 25,4 14,3 5 3 S 1015,3 10
23.01.2020 11:00:00 - - - - - - -
23.01.2020 10:00:00 - - - - - - -
23.01.2020 09:00:00 17,9 12,9 4 2 SSE 1017,2 10
23.01.2020 08:00:00 - - - - - - -
23.01.2020 07:00:00 - - - - - - -
23.01.2020 06:00:00 15,5 12,4 0 0 N 1016,0 10
23.01.2020 05:00:00 - - - - - - -
23.01.2020 04:00:00 - - - - - - -
23.01.2020 03:00:00 17,8 12,6 0 0 N 1014,2 10
23.01.2020 02:00:00 - - - - - - -
23.01.2020 01:00:00 - - - - - - -
23.01.2020 00:00:00 19,2 12,8 4 2 S 1013,7 10
22.01.2020 23:00:00 - - - - - - -
22.01.2020 22:00:00 - - - - - - -
22.01.2020 21:00:00 23,1 13,3 5 3 SSW 1011,4 10
22.01.2020 20:00:00 - - - - - - -
22.01.2020 19:00:00 - - - - - - -
22.01.2020 18:00:00 29,7 13,8 16 9 S 1009,0 10
22.01.2020 17:00:00 - - - - - - -
22.01.2020 16:00:00 - - - - - - -
22.01.2020 15:00:00 28,5 13,9 8 4 WSW 1010,5 10
22.01.2020 14:00:00 - - - - - - -
22.01.2020 13:00:00 - - - - - - -
22.01.2020 12:00:00 23,9 12,9 8 4 SSW 1012,5 10
22.01.2020 11:00:00 - - - - - - -
22.01.2020 10:00:00 - - - - - - -
22.01.2020 09:00:00 17,2 11,2 4 2 SSW 1013,6 10
22.01.2020 08:00:00 - - - - - - -
22.01.2020 07:00:00 - - - - - - -
22.01.2020 06:00:00 14,4 11,1 0 0 N 1011,9 10
22.01.2020 05:00:00 - - - - - - -
22.01.2020 04:00:00 - - - - - - -
22.01.2020 03:00:00 17,5 11,4 0 0 N 1011,0 10
22.01.2020 02:00:00 - - - - - - -
22.01.2020 01:00:00 - - - - - - -
22.01.2020 00:00:00 20,6 11,5 2 1 S 1011,0 10
21.01.2020 23:00:00 - - - - - - -
21.01.2020 22:00:00 - - - - - - -
21.01.2020 21:00:00 25,1 11,2 5 3 S 1009,4 10
21.01.2020 20:00:00 - - - - - - -
21.01.2020 19:00:00 - - - - - - -
21.01.2020 18:00:00 29,9 12,2 9 5 SSW 1008,1 10
21.01.2020 17:00:00 - - - - - - -
21.01.2020 16:00:00 - - - - - - -
21.01.2020 15:00:00 30,1 13,2 15 8 WSW 1009,2 10
21.01.2020 14:00:00 - - - - - - -
21.01.2020 13:00:00 - - - - - - -
21.01.2020 12:00:00 26,3 12,3 4 2 W 1010,8 10
21.01.2020 11:00:00 - - - - - - -
21.01.2020 10:00:00 - - - - - - -
21.01.2020 09:00:00 19,7 12,2 0 0 N 1012,0 10
21.01.2020 08:00:00 - - - - - - -
21.01.2020 07:00:00 - - - - - - -
21.01.2020 06:00:00 16,5 12,2 0 0 N 1011,8 10
21.01.2020 05:00:00 - - - - - - -
21.01.2020 04:00:00 - - - - - - -
21.01.2020 03:00:00 18,5 12,3 0 0 N 1011,1 10
21.01.2020 02:00:00 - - - - - - -
21.01.2020 01:00:00 - - - - - - -
21.01.2020 00:00:00 21,6 12,3 0 0 N 1011,6 10
20.01.2020 23:00:00 - - - - - - -
20.01.2020 22:00:00 - - - - - - -
20.01.2020 21:00:00 25,6 13,3 13 7 S 1010,3 10
20.01.2020 20:00:00 - - - - - - -
20.01.2020 19:00:00 - - - - - - -
20.01.2020 18:00:00 31,9 14,6 11 6 SW 1008,3 10
20.01.2020 17:00:00 - - - - - - -
20.01.2020 16:00:00 - - - - - - -
20.01.2020 15:00:00 31,5 15,0 9 5 SW 1010,0 10
20.01.2020 14:00:00 - - - - - - -
20.01.2020 13:00:00 - - - - - - -
20.01.2020 12:00:00 25,6 14,0 8 4 SSE 1011,6 10
20.01.2020 11:00:00 - - - - - - -
20.01.2020 10:00:00 - - - - - - -
20.01.2020 09:00:00 18,5 13,2 0 0 N 1013,1 10
20.01.2020 08:00:00 - - - - - - -
20.01.2020 07:00:00 - - - - - - -
20.01.2020 06:00:00 16,0 12,6 0 0 N 1013,5 10
20.01.2020 05:00:00 - - - - - - -
20.01.2020 04:00:00 - - - - - - -
20.01.2020 03:00:00 16,9 12,7 4 2 SSW 1013,0 10
20.01.2020 02:00:00 - - - - - - -
20.01.2020 01:00:00 - - - - - - -
20.01.2020 00:00:00 19,9 12,9 0 0 N 1012,8 10
19.01.2020 23:00:00 - - - - - - -
19.01.2020 22:00:00 - - - - - - -
19.01.2020 21:00:00 21,1 13,5 9 5 S 1011,6 10
19.01.2020 20:00:00 - - - - - - -
19.01.2020 19:00:00 - - - - - - -
19.01.2020 18:00:00 25,9 13,3 8 4 SSW 1010,5 10
19.01.2020 17:00:00 - - - - - - -
19.01.2020 16:00:00 - - - - - - -
19.01.2020 15:00:00 25,4 13,0 11 6 S 1011,4 10
19.01.2020 14:00:00 - - - - - - -
19.01.2020 13:00:00 - - - - - - -
19.01.2020 12:00:00 25,8 11,9 9 5 S 1010,6 10
19.01.2020 11:00:00 - - - - - - -
19.01.2020 10:00:00 - - - - - - -
19.01.2020 09:00:00 20,0 10,1 4 2 SSW 1010,5 10
19.01.2020 08:00:00 - - - - - - -
19.01.2020 07:00:00 - - - - - - -
19.01.2020 06:00:00 17,8 9,3 0 0 N 1010,2 10
19.01.2020 05:00:00 - - - - - - -
19.01.2020 04:00:00 - - - - - - -
19.01.2020 03:00:00 - - - - - - -
19.01.2020 02:00:00 - - - - - - -
19.01.2020 01:00:00 - - - - - - -
19.01.2020 00:00:00 23,0 10,5 4 2 S 1009,1 10
18.01.2020 23:00:00 - - - - - - -
18.01.2020 22:00:00 - - - - - - -
18.01.2020 21:00:00 25,7 10,8 5 3 SSW 1007,2 10
18.01.2020 20:00:00 - - - - - - -
18.01.2020 19:00:00 - - - - - - -
18.01.2020 18:00:00 30,8 12,2 13 7 SSW 1005,6 10
18.01.2020 17:00:00 - - - - - - -
18.01.2020 16:00:00 - - - - - - -
18.01.2020 15:00:00 33,2 12,4 13 7 SW 1006,3 10
18.01.2020 14:00:00 - - - - - - -
18.01.2020 13:00:00 - - - - - - -
18.01.2020 12:00:00 28,7 12,5 4 2 W 1008,0 10
18.01.2020 11:00:00 - - - - - - -
18.01.2020 10:00:00 - - - - - - -
18.01.2020 09:00:00 20,4 11,9 0 0 N 1009,4 10
18.01.2020 08:00:00 - - - - - - -
18.01.2020 07:00:00 - - - - - - -
18.01.2020 06:00:00 18,3 11,8 0 0 N 1008,9 10
18.01.2020 05:00:00 - - - - - - -
18.01.2020 04:00:00 - - - - - - -
18.01.2020 03:00:00 19,8 11,1 0 0 N 1009,4 10
18.01.2020 02:00:00 - - - - - - -
18.01.2020 01:00:00 - - - - - - -
18.01.2020 00:00:00 21,3 11,3 4 2 SSE 1010,1 10
17.01.2020 23:00:00 - - - - - - -
17.01.2020 22:00:00 - - - - - - -

tt = temperature
td = dewpoint
ff = wind speed
dd = wind direction
ppp = reduced air pressure
vv = visibility

Next stations